START_TIME,STEP,MOV.,M35,t_acc.,PL05,t_acc.,PL06,t_acc.,PL07,t_acc.
1979-08-02 09:00:22.730 ,0,0,0.,4.8,9.,4.8,2.,4.8,2.,4.8
1979-08-02 09:00:27.530 ,0,0,0.,4.8,20.,4.8,1.,4.8,0.,4.8
1979-08-02 09:00:32.330 ,0,0,0.,4.8,11.,4.8,2.,4.8,0.,4.8
1979-08-02 09:00:37.130 ,0,0,0.,4.8,8.,4.8,1.,4.8,2.,4.8
1979-08-02 09:00:41.930 ,0,0,,0,,0,,0,,0
1979-08-02 09:00:46.730 ,0,0,,0,,0,,0,,0
1979-08-02 09:00:51.530 ,0,0,0.,4.8,10.,4.8,0.,4.8,1.,4.8
1979-08-02 09:00:56.330 ,0,0,0.,4.8,7.,4.8,1.,4.8,2.,4.8
1979-08-02 09:01:01.130 ,0,0,0.,4.8,12.,4.8,1.,4.8,1.,4.8
1979-08-02 09:01:05.930 ,0,0,0.,4.8,13.,4.8,4.,4.8,0.,4.8
1979-08-02 09:01:10.720 ,0,0,0.,4.8,6.,4.8,2.,4.8,0.,4.8
1979-08-02 09:01:15.530 ,0,0,0.,4.8,5.,4.8,3.,4.8,0.,4.8
1979-08-02 09:01:20.330 ,0,0,0.,4.8,10.,4.8,1.,4.8,0.,4.8
1979-08-02 09:01:25.130 ,0,0,0.,4.8,10.,4.8,1.,4.8,0.,4.8
1979-08-02 09:01:29.930 ,0,0,0.,4.8,5.,4.8,1.,4.8,0.,4.8
1979-08-02 09:01:34.720 ,1,0,0.,4.8,9.,4.8,2.,4.8,0.,4.8
1979-08-02 09:01:39.530 ,1,0,0.,4.8,12.,4.8,2.,4.8,1.,4.8
1979-08-02 09:01:44.330 ,1,0,0.,4.8,6.,4.8,3.,4.8,1.,4.8
1979-08-02 09:01:49.130 ,1,0,0.,4.8,2.,4.8,4.,4.8,1.,4.8
1979-08-02 09:01:53.930 ,1,0,0.,4.8,5.,4.8,0.,4.8,1.,4.8
1979-08-02 09:01:58.720 ,1,0,0.,4.8,6.,4.8,0.,4.8,0.,4.8
1979-08-02 09:02:03.530 ,1,0,0.,4.8,5.,4.8,3.,4.8,0.,4.8
1979-08-02 09:02:08.320 ,1,0,0.,4.8,5.,4.8,0.,4.8,1.,4.8
1979-08-02 09:02:13.130 ,1,0,0.,4.8,5.,4.8,1.,4.8,0.,4.8
1979-08-02 09:02:17.930 ,1,0,0.,4.8,6.,4.8,1.,4.8,1.,4.8
1979-08-02 09:02:22.720 ,2,0,0.,4.8,5.,4.8,2.,4.8,0.,4.8
1979-08-02 09:02:27.520 ,2,0,0.,4.8,5.,4.8,0.,4.8,0.,4.8
1979-08-02 09:02:32.320 ,2,0,0.,4.8,3.,4.8,1.,4.8,0.,4.8
1979-08-02 09:02:37.130 ,2,0,0.,4.8,9.,4.8,1.,4.8,1.,4.8
1979-08-02 09:02:41.930 ,2,0,1.,4.8,5.,4.8,0.,4.8,0.,4.8
1979-08-02 09:02:46.730 ,2,0,0.,4.8,2.,4.8,2.,4.8,0.,4.8
1979-08-02 09:02:51.530 ,2,0,0.,4.8,4.,4.8,2.,4.8,0.,4.8
1979-08-02 09:02:56.330 ,2,0,0.,4.8,3.,4.8,1.,4.8,0.,4.8
1979-08-02 09:03:01.130 ,2,0,0.,4.8,4.,4.8,3.,4.8,1.,4.8
1979-08-02 09:03:05.930 ,2,0,0.,4.8,3.,4.8,0.,4.8,0.,4.8
1979-08-02 09:03:10.720 ,3,0,0.,4.8,7.,4.8,0.,4.8,0.,4.8
1979-08-02 09:03:15.520 ,3,0,0.,4.8,6.,4.8,1.,4.8,0.,4.8
1979-08-02 09:03:20.320 ,3,0,0.,4.8,5.,4.8,0.,4.8,0.,4.8
1979-08-02 09:03:25.130 ,3,0,0.,4.8,3.,4.8,0.,4.8,1.,4.8
1979-08-02 09:03:29.930 ,3,0,0.,4.8,3.,4.8,0.,4.8,0.,4.8
1979-08-02 09:03:34.720 ,3,0,0.,4.8,2.,4.8,0.,4.8,2.,4.8
1979-08-02 09:03:39.520 ,3,0,0.,4.8,0.,4.8,0.,4.8,1.,4.8
1979-08-02 09:03:44.330 ,3,0,0.,4.8,0.,4.8,1.,4.8,0.,4.8
1979-08-02 09:03:49.130 ,3,0,0.,4.8,3.,4.8,0.,4.8,0.,4.8
1979-08-02 09:03:53.930 ,3,0,0.,4.8,2.,4.8,1.,4.8,0.,4.8
1979-08-02 09:03:58.730 ,4,0,0.,4.8,3.,4.8,1.,4.8,1.,4.8
1979-08-02 09:04:03.520 ,4,0,0.,4.8,4.,4.8,0.,4.8,0.,4.8
1979-08-02 09:04:08.320 ,4,0,0.,4.8,3.,4.8,0.,4.8,0.,4.8
1979-08-02 09:04:13.130 ,4,0,0.,4.8,5.,4.8,2.,4.8,0.,4.8
1979-08-02 09:04:17.930 ,4,0,0.,4.8,4.,4.8,0.,4.8,0.,4.8
1979-08-02 09:04:22.730 ,0,0,0.,4.8,1.,4.8,1.,4.8,0.,4.8
1979-08-02 09:04:27.530 ,0,0,0.,4.8,2.,4.8,0.,4.8,0.,4.8
1979-08-02 09:04:32.330 ,0,0,0.,4.8,3.,4.8,0.,4.8,0.,4.8
1979-08-02 09:04:37.130 ,0,0,0.,4.8,1.,4.8,0.,4.8,0.,4.8
1979-08-02 09:04:41.930 ,0,0,0.,4.8,3.,4.8,1.,4.8,0.,4.8
1979-08-02 09:04:46.730 ,5,0,0.,4.8,1.,4.8,0.,4.8,0.,4.8
1979-08-02 09:04:51.530 ,5,0,0.,4.8,2.,4.8,1.,4.8,0.,4.8
1979-08-02 09:04:56.330 ,5,0,0.,4.8,5.,4.8,2.,4.8,0.,4.8
1979-08-02 09:05:01.130 ,5,0,,0,,0,,0,,0
1979-08-02 09:05:05.930 ,5,0,0.,4.8,0.,4.8,0.,4.8,0.,4.8
1979-08-02 09:05:10.730 ,5,0,0.,4.8,1.,4.8,0.,4.8,0.,4.8
1979-08-02 09:05:15.530 ,5,0,0.,4.8,0.,4.8,0.,4.8,1.,4.8
1979-08-02 09:05:20.330 ,5,0,0.,4.8,2.,4.8,0.,4.8,0.,4.8
1979-08-02 09:05:25.130 ,5,0,0.,4.8,3.,4.8,0.,4.8,0.,4.8
1979-08-02 09:05:29.930 ,5,0,0.,4.8,6.,4.8,0.,4.8,0.,4.8
1979-08-02 09:05:34.730 ,6,0,0.,4.8,2.,4.8,0.,4.8,0.,4.8
1979-08-02 09:05:39.530 ,6,0,0.,4.8,3.,4.8,0.,4.8,0.,4.8
1979-08-02 09:05:44.330 ,6,0,0.,4.8,5.,4.8,0.,4.8,0.,4.8
1979-08-02 09:05:49.130 ,6,0,0.,4.8,2.,4.8,1.,4.8,1.,4.8
1979-08-02 09:05:53.930 ,6,0,0.,4.8,0.,4.8,0.,4.8,0.,4.8
1979-08-02 09:05:58.730 ,6,0,0.,4.8,1.,4.8,0.,4.8,0.,4.8
1979-08-02 09:06:03.530 ,6,0,0.,4.8,2.,4.8,0.,4.8,0.,4.8
1979-08-02 09:06:08.330 ,6,0,0.,4.8,4.,4.8,1.,4.8,0.,4.8
1979-08-02 09:06:13.130 ,6,0,0.,4.8,3.,4.8,1.,4.8,2.,4.8
1979-08-02 09:06:17.930 ,6,0,0.,4.8,2.,4.8,1.,4.8,2.,4.8
1979-08-02 09:06:22.730 ,7,0,0.,4.8,3.,4.8,1.,4.8,0.,4.8
1979-08-02 09:06:27.530 ,7,0,0.,4.8,5.,4.8,0.,4.8,1.,4.8
1979-08-02 09:06:32.330 ,7,0,,0,,0,,0,,0
1979-08-02 09:06:37.130 ,7,0,,0,,0,,0,,0
1979-08-02 09:06:41.930 ,7,0,0.,4.8,1.,4.8,0.,4.8,0.,4.8
1979-08-02 09:06:46.730 ,7,0,0.,4.8,0.,4.8,0.,4.8,0.,4.8
1979-08-02 09:06:51.530 ,7,0,0.,4.8,0.,4.8,0.,4.8,1.,4.8
1979-08-02 09:06:56.330 ,7,0,0.,4.8,0.,4.8,0.,4.8,0.,4.8
1979-08-02 09:07:01.130 ,7,0,0.,4.8,0.,4.8,0.,4.8,0.,4.8
1979-08-02 09:07:05.930 ,7,0,0.,4.8,0.,4.8,0.,4.8,0.,4.8
1979-08-02 09:07:10.730 ,3,1,0.,4.8,1.,4.8,1.,4.8,0.,4.8
1979-08-02 09:07:15.530 ,3,1,0.,4.8,6.,4.8,0.,4.8,1.,4.8
1979-08-02 09:07:20.330 ,3,1,0.,4.8,1.,4.8,0.,4.8,2.,4.8
1979-08-02 09:07:25.130 ,3,1,0.,4.8,3.,4.8,1.,4.8,0.,4.8
1979-08-02 09:07:29.930 ,3,1,0.,4.8,1.,4.8,1.,4.8,2.,4.8
1979-08-02 09:07:34.730 ,0,1,0.,4.8,1.,4.8,1.,4.8,0.,4.8
1979-08-02 09:07:39.530 ,0,1,1.,4.8,3.,4.8,2.,4.8,0.,4.8
1979-08-02 09:07:44.330 ,0,1,0.,4.8,2.,4.8,2.,4.8,0.,4.8
1979-08-02 09:07:49.130 ,0,1,0.,4.8,11.,4.8,0.,4.8,0.,4.8
1979-08-02 09:07:53.930 ,0,1,0.,4.8,12.,4.8,0.,4.8,0.,4.8
1979-08-02 09:07:58.730 ,4,1,0.,4.8,10.,4.8,1.,4.8,1.,4.8
1979-08-02 09:08:03.530 ,4,1,0.,4.8,6.,4.8,1.,4.8,1.,4.8
1979-08-02 09:08:08.330 ,4,1,0.,4.8,2.,4.8,0.,4.8,0.,4.8
1979-08-02 09:08:13.130 ,4,1,0.,4.8,5.,4.8,0.,4.8,0.,4.8
1979-08-02 09:08:17.930 ,4,1,0.,4.8,1.,4.8,1.,4.8,0.,4.8
1979-08-02 09:08:22.730 ,7,1,0.,4.8,1.,4.8,0.,4.8,0.,4.8
1979-08-02 09:08:27.530 ,7,1,0.,4.8,1.,4.8,0.,4.8,0.,4.8
1979-08-02 09:08:32.330 ,7,1,0.,4.8,2.,4.8,1.,4.8,0.,4.8
1979-08-02 09:08:37.130 ,7,1,0.,4.8,1.,4.8,0.,4.8,0.,4.8
1979-08-02 09:08:41.930 ,7,1,0.,4.8,1.,4.8,0.,4.8,0.,4.8
1979-08-02 09:08:46.730 ,3,1,0.,4.8,3.,4.8,0.,4.8,0.,4.8
1979-08-02 09:08:51.530 ,3,1,0.,4.8,2.,4.8,0.,4.8,1.,4.8
1979-08-02 09:08:56.330 ,3,1,0.,4.8,2.,4.8,1.,4.8,0.,4.8
1979-08-02 09:09:01.130 ,3,1,0.,4.8,0.,4.8,1.,4.8,1.,4.8
1979-08-02 09:09:05.930 ,3,1,0.,4.8,2.,4.8,0.,4.8,0.,4.8
1979-08-02 09:09:10.730 ,0,1,0.,4.8,6.,4.8,0.,4.8,0.,4.8
1979-08-02 09:09:15.530 ,0,1,0.,4.8,1.,4.8,0.,4.8,0.,4.8
1979-08-02 09:09:20.330 ,0,1,0.,4.8,5.,4.8,1.,4.8,2.,4.8
1979-08-02 09:09:25.130 ,0,1,0.,4.8,13.,4.8,0.,4.8,1.,4.8
1979-08-02 09:09:29.930 ,0,1,0.,4.8,6.,4.8,0.,4.8,0.,4.8
1979-08-02 09:09:34.730 ,4,1,0.,4.8,3.,4.8,1.,4.8,0.,4.8
1979-08-02 09:09:39.530 ,4,1,0.,4.8,4.,4.8,2.,4.8,0.,4.8
1979-08-02 09:09:44.330 ,4,1,0.,4.8,3.,4.8,0.,4.8,0.,4.8
1979-08-02 09:09:49.130 ,4,1,0.,4.8,4.,4.8,0.,4.8,0.,4.8
1979-08-02 09:09:53.930 ,4,1,0.,4.8,2.,4.8,0.,4.8,0.,4.8
1979-08-02 09:09:58.730 ,7,1,0.,4.8,4.,4.8,1.,4.8,0.,4.8
1979-08-02 09:10:03.530 ,7,1,0.,4.8,2.,4.8,0.,4.8,0.,4.8
1979-08-02 09:10:08.330 ,7,1,0.,4.8,3.,4.8,0.,4.8,0.,4.8
1979-08-02 09:10:13.130 ,7,1,0.,4.8,3.,4.8,1.,4.8,1.,4.8
1979-08-02 09:10:17.930 ,7,1,0.,4.8,1.,4.8,0.,4.8,0.,4.8
1979-08-02 09:10:22.730 ,3,1,0.,4.8,2.,4.8,0.,4.8,0.,4.8
1979-08-02 09:10:27.530 ,3,1,0.,4.8,1.,4.8,0.,4.8,0.,4.8
1979-08-02 09:10:32.330 ,3,1,0.,4.8,4.,4.8,0.,4.8,1.,4.8
1979-08-02 09:10:37.130 ,3,1,0.,4.8,1.,4.8,1.,4.8,0.,4.8
1979-08-02 09:10:41.930 ,3,1,0.,4.8,2.,4.8,0.,4.8,2.,4.8
1979-08-02 09:10:46.730 ,0,1,0.,4.8,5.,4.8,1.,4.8,2.,4.8
1979-08-02 09:10:51.530 ,0,1,0.,4.8,4.,4.8,1.,4.8,0.,4.8
1979-08-02 09:10:56.330 ,0,1,0.,4.8,5.,4.8,0.,4.8,0.,4.8
1979-08-02 09:11:01.130 ,0,1,0.,4.8,9.,4.8,2.,4.8,0.,4.8
1979-08-02 09:11:05.930 ,0,1,0.,4.8,8.,4.8,0.,4.8,0.,4.8
1979-08-02 09:11:10.730 ,4,1,0.,4.8,7.,4.8,0.,4.8,1.,4.8
1979-08-02 09:11:15.530 ,4,1,0.,4.8,5.,4.8,1.,4.8,0.,4.8
1979-08-02 09:11:20.330 ,4,1,0.,4.8,1.,4.8,1.,4.8,1.,4.8
1979-08-02 09:11:25.130 ,4,1,0.,4.8,5.,4.8,1.,4.8,0.,4.8
1979-08-02 09:11:29.930 ,4,1,0.,4.8,6.,4.8,0.,4.8,0.,4.8
1979-08-02 09:11:34.730 ,7,1,0.,4.8,1.,4.8,1.,4.8,0.,4.8
1979-08-02 09:11:39.530 ,7,1,0.,4.8,1.,4.8,0.,4.8,0.,4.8
1979-08-02 09:11:44.330 ,7,1,0.,4.8,2.,4.8,0.,4.8,1.,4.8
1979-08-02 09:11:49.130 ,7,1,0.,4.8,2.,4.8,0.,4.8,0.,4.8
1979-08-02 09:11:53.930 ,7,1,0.,4.8,0.,4.8,0.,4.8,0.,4.8
1979-08-02 09:11:58.730 ,3,1,0.,4.8,0.,4.8,0.,4.8,0.,4.8
1979-08-02 09:12:03.530 ,3,1,0.,4.8,4.,4.8,0.,4.8,0.,4.8
1979-08-02 09:12:08.330 ,3,1,0.,4.8,2.,4.8,1.,4.8,0.,4.8
1979-08-02 09:12:13.130 ,3,1,0.,4.8,7.,4.8,0.,4.8,1.,4.8
1979-08-02 09:12:17.930 ,3,1,0.,4.8,3.,4.8,2.,4.8,0.,4.8
1979-08-02 09:12:22.730 ,0,1,0.,4.8,7.,4.8,0.,4.8,0.,4.8
1979-08-02 09:12:27.530 ,0,1,0.,4.8,3.,4.8,2.,4.8,0.,4.8
1979-08-02 09:12:32.330 ,0,1,0.,4.8,5.,4.8,1.,4.8,1.,4.8
1979-08-02 09:12:37.130 ,0,1,0.,4.8,11.,4.8,2.,4.8,0.,4.8
1979-08-02 09:12:41.930 ,0,1,0.,4.8,9.,4.8,1.,4.8,0.,4.8
1979-08-02 09:12:46.730 ,4,1,0.,4.8,8.,4.8,2.,4.8,1.,4.8
1979-08-02 09:12:51.530 ,4,1,0.,4.8,5.,4.8,1.,4.8,1.,4.8
1979-08-02 09:12:56.330 ,4,1,0.,4.8,3.,4.8,2.,4.8,0.,4.8
1979-08-02 09:13:01.130 ,4,1,0.,4.8,2.,4.8,1.,4.8,0.,4.8
1979-08-02 09:13:05.930 ,4,1,0.,4.8,1.,4.8,1.,4.8,2.,4.8
1979-08-02 09:13:10.730 ,7,1,0.,4.8,1.,4.8,0.,4.8,0.,4.8
1979-08-02 09:13:15.530 ,7,1,0.,4.8,2.,4.8,2.,4.8,0.,4.8
1979-08-02 09:13:20.330 ,7,1,0.,4.8,2.,4.8,1.,4.8,1.,4.8
1979-08-02 09:13:25.130 ,7,1,0.,4.8,0.,4.8,0.,4.8,0.,4.8
1979-08-02 09:13:29.930 ,7,1,0.,4.8,0.,4.8,0.,4.8,0.,4.8
1979-08-02 09:13:34.730 ,3,1,0.,4.8,1.,4.8,0.,4.8,0.,4.8
1979-08-02 09:13:39.530 ,3,1,0.,4.8,1.,4.8,1.,4.8,0.,4.8
1979-08-02 09:13:44.330 ,3,1,0.,4.8,1.,4.8,0.,4.8,0.,4.8
1979-08-02 09:13:49.130 ,3,1,0.,4.8,2.,4.8,0.,4.8,1.,4.8
1979-08-02 09:13:53.930 ,3,1,0.,4.8,5.,4.8,1.,4.8,1.,4.8
1979-08-02 09:13:58.730 ,0,1,0.,4.8,4.,4.8,0.,4.8,0.,4.8
1979-08-02 09:14:03.530 ,0,1,0.,4.8,0.,4.8,1.,4.8,0.,4.8
1979-08-02 09:14:08.330 ,0,1,0.,4.8,2.,4.8,3.,4.8,0.,4.8
1979-08-02 09:14:13.130 ,0,1,0.,4.8,14.,4.8,1.,4.8,1.,4.8
1979-08-02 09:14:17.930 ,0,1,0.,4.8,13.,4.8,2.,4.8,0.,4.8
1979-08-02 09:14:22.730 ,4,1,0.,4.8,14.,4.8,3.,4.8,0.,4.8
1979-08-02 09:14:27.530 ,4,1,0.,4.8,8.,4.8,2.,4.8,0.,4.8
1979-08-02 09:14:32.330 ,4,1,0.,4.8,2.,4.8,0.,4.8,0.,4.8
1979-08-02 09:14:37.130 ,4,1,0.,4.8,8.,4.8,0.,4.8,1.,4.8
1979-08-02 09:14:41.930 ,4,1,0.,4.8,2.,4.8,0.,4.8,0.,4.8
1979-08-02 09:14:46.730 ,7,1,0.,4.8,2.,4.8,0.,4.8,0.,4.8
1979-08-02 09:14:51.530 ,7,1,0.,4.8,2.,4.8,1.,4.8,0.,4.8
1979-08-02 09:14:56.330 ,7,1,0.,4.8,4.,4.8,0.,4.8,0.,4.8
1979-08-02 09:15:01.130 ,7,1,0.,4.8,0.,4.8,1.,4.8,0.,4.8
1979-08-02 09:15:05.930 ,7,1,0.,4.8,1.,4.8,1.,4.8,0.,4.8
1979-08-02 09:15:10.730 ,3,1,0.,4.8,0.,4.8,1.,4.8,0.,4.8
1979-08-02 09:15:15.530 ,3,1,0.,4.8,2.,4.8,3.,4.8,0.,4.8
1979-08-02 09:15:20.330 ,3,1,0.,4.8,4.,4.8,2.,4.8,0.,4.8
1979-08-02 09:15:25.130 ,3,1,0.,4.8,1.,4.8,0.,4.8,1.,4.8
1979-08-02 09:15:29.930 ,3,1,0.,4.8,0.,4.8,0.,4.8,1.,4.8
1979-08-02 09:15:34.730 ,0,1,0.,4.8,3.,4.8,0.,4.8,0.,4.8
1979-08-02 09:15:39.530 ,0,1,0.,4.8,3.,4.8,1.,4.8,0.,4.8
1979-08-02 09:15:44.330 ,0,1,0.,4.8,5.,4.8,0.,4.8,0.,4.8
1979-08-02 09:15:49.130 ,0,1,0.,4.8,8.,4.8,1.,4.8,1.,4.8
1979-08-02 09:15:53.930 ,0,1,0.,4.8,15.,4.8,1.,4.8,0.,4.8
1979-08-02 09:15:58.730 ,4,1,0.,4.8,8.,4.8,2.,4.8,0.,4.8
1979-08-02 09:16:03.530 ,4,1,0.,4.8,7.,4.8,1.,4.8,0.,4.8
1979-08-02 09:16:08.330 ,4,1,0.,4.8,5.,4.8,1.,4.8,1.,4.8
1979-08-02 09:16:13.130 ,4,1,0.,4.8,4.,4.8,2.,4.8,1.,4.8
1979-08-02 09:16:17.930 ,4,1,0.,4.8,1.,4.8,0.,4.8,0.,4.8
1979-08-02 09:16:22.730 ,7,1,0.,4.8,2.,4.8,0.,4.8,0.,4.8
1979-08-02 09:16:27.530 ,7,1,0.,4.8,4.,4.8,1.,4.8,0.,4.8
1979-08-02 09:16:32.330 ,7,1,0.,4.8,4.,4.8,0.,4.8,1.,4.8
1979-08-02 09:16:37.130 ,7,1,0.,4.8,3.,4.8,0.,4.8,0.,4.8
1979-08-02 09:16:41.930 ,7,1,0.,4.8,0.,4.8,0.,4.8,0.,4.8
1979-08-02 09:16:46.730 ,3,1,0.,4.8,2.,4.8,0.,4.8,0.,4.8
1979-08-02 09:16:51.530 ,3,1,0.,4.8,4.,4.8,2.,4.8,0.,4.8
1979-08-02 09:16:56.330 ,3,1,0.,4.8,6.,4.8,0.,4.8,1.,4.8
1979-08-02 09:17:01.130 ,3,1,0.,4.8,2.,4.8,1.,4.8,0.,4.8
1979-08-02 09:17:05.930 ,3,1,0.,4.8,1.,4.8,0.,4.8,0.,4.8
1979-08-02 09:17:10.720 ,0,1,0.,4.8,3.,4.8,0.,4.8,0.,4.8
1979-08-02 09:17:15.520 ,0,1,0.,4.8,2.,4.8,1.,4.8,0.,4.8
1979-08-02 09:17:20.320 ,0,1,0.,4.8,9.,4.8,2.,4.8,0.,4.8
1979-08-02 09:17:25.130 ,0,1,0.,4.8,11.,4.8,0.,4.8,0.,4.8
1979-08-02 09:17:29.920 ,0,1,0.,4.8,10.,4.8,1.,4.8,0.,4.8
1979-08-02 09:17:34.720 ,0,0,0.,4.8,5.,4.8,2.,4.8,2.,4.8
1979-08-02 09:17:39.520 ,0,0,0.,4.8,2.,4.8,1.,4.8,1.,4.8
1979-08-02 09:17:44.320 ,0,0,0.,4.8,3.,4.8,3.,4.8,0.,4.8
1979-08-02 09:17:49.120 ,0,0,0.,4.8,3.,4.8,0.,4.8,0.,4.8
1979-08-02 09:17:53.920 ,0,0,0.,4.8,1.,4.8,0.,4.8,2.,4.8
1979-08-02 09:17:58.720 ,0,0,0.,4.8,4.,4.8,0.,4.8,0.,4.8
1979-08-02 09:18:03.520 ,0,0,0.,4.8,2.,4.8,2.,4.8,1.,4.8
1979-08-02 09:18:08.320 ,0,0,0.,4.8,5.,4.8,0.,4.8,0.,4.8
1979-08-02 09:18:13.120 ,0,0,0.,4.8,0.,4.8,0.,4.8,0.,4.8
1979-08-02 09:18:17.920 ,0,0,0.,4.8,1.,4.8,0.,4.8,0.,4.8
1979-08-02 09:18:22.720 ,5,0,0.,4.8,0.,4.8,0.,4.8,0.,4.8
1979-08-02 09:18:27.520 ,5,0,0.,4.8,1.,4.8,2.,4.8,0.,4.8
1979-08-02 09:18:32.320 ,5,0,0.,4.8,2.,4.8,0.,4.8,0.,4.8
1979-08-02 09:18:37.120 ,5,0,0.,4.8,0.,4.8,1.,4.8,0.,4.8
1979-08-02 09:18:41.920 ,5,0,0.,4.8,2.,4.8,1.,4.8,0.,4.8
1979-08-02 09:18:46.720 ,5,0,0.,4.8,3.,4.8,0.,4.8,0.,4.8
1979-08-02 09:18:51.520 ,5,0,0.,4.8,3.,4.8,0.,4.8,0.,4.8
1979-08-02 09:18:56.320 ,5,0,0.,4.8,4.,4.8,1.,4.8,0.,4.8
1979-08-02 09:19:01.120 ,5,0,0.,4.8,1.,4.8,0.,4.8,0.,4.8
1979-08-02 09:19:05.920 ,5,0,0.,4.8,2.,4.8,1.,4.8,0.,4.8
1979-08-02 09:19:10.720 ,4,0,0.,4.8,4.,4.8,1.,4.8,0.,4.8
1979-08-02 09:19:15.520 ,4,0,0.,4.8,2.,4.8,1.,4.8,1.,4.8
1979-08-02 09:19:20.320 ,4,0,0.,4.8,3.,4.8,1.,4.8,0.,4.8
1979-08-02 09:19:25.120 ,4,0,0.,4.8,1.,4.8,0.,4.8,1.,4.8
1979-08-02 09:19:29.920 ,4,0,0.,4.8,3.,4.8,0.,4.8,0.,4.8
1979-08-02 09:19:34.720 ,4,0,0.,4.8,3.,4.8,1.,4.8,2.,4.8
1979-08-02 09:19:39.520 ,4,0,0.,4.8,2.,4.8,0.,4.8,0.,4.8
1979-08-02 09:19:44.320 ,4,0,0.,4.8,2.,4.8,0.,4.8,0.,4.8
1979-08-02 09:19:49.120 ,4,0,0.,4.8,0.,4.8,1.,4.8,0.,4.8
1979-08-02 09:19:53.920 ,4,0,0.,4.8,1.,4.8,0.,4.8,0.,4.8
1979-08-02 09:19:58.720 ,3,0,0.,4.8,2.,4.8,0.,4.8,1.,4.8
1979-08-02 09:20:03.520 ,3,0,0.,4.8,1.,4.8,0.,4.8,0.,4.8
1979-08-02 09:20:08.320 ,3,0,0.,4.8,2.,4.8,0.,4.8,0.,4.8
1979-08-02 09:20:13.120 ,3,0,0.,4.8,3.,4.8,1.,4.8,2.,4.8
1979-08-02 09:20:17.920 ,3,0,0.,4.8,6.,4.8,1.,4.8,0.,4.8
1979-08-02 09:20:22.720 ,3,0,0.,4.8,3.,4.8,1.,4.8,0.,4.8
1979-08-02 09:20:27.520 ,3,0,0.,4.8,4.,4.8,0.,4.8,0.,4.8
1979-08-02 09:20:32.320 ,3,0,0.,4.8,4.,4.8,1.,4.8,0.,4.8
1979-08-02 09:20:37.120 ,3,0,0.,4.8,4.,4.8,0.,4.8,0.,4.8
1979-08-02 09:20:41.920 ,3,0,0.,4.8,2.,4.8,1.,4.8,0.,4.8
1979-08-02 09:20:46.720 ,2,0,0.,4.8,4.,4.8,0.,4.8,1.,4.8
1979-08-02 09:20:51.520 ,2,0,0.,4.8,4.,4.8,1.,4.8,0.,4.8
1979-08-02 09:20:56.320 ,2,0,0.,4.8,3.,4.8,3.,4.8,0.,4.8
1979-08-02 09:21:01.120 ,2,0,0.,4.8,2.,4.8,0.,4.8,0.,4.8
1979-08-02 09:21:05.920 ,2,0,0.,4.8,4.,4.8,0.,4.8,0.,4.8
1979-08-02 09:21:10.720 ,2,0,0.,4.8,4.,4.8,1.,4.8,0.,4.8
1979-08-02 09:21:15.520 ,2,0,0.,4.8,5.,4.8,2.,4.8,0.,4.8
1979-08-02 09:21:20.320 ,2,0,0.,4.8,1.,4.8,4.,4.8,0.,4.8
1979-08-02 09:21:25.120 ,2,0,0.,4.8,3.,4.8,0.,4.8,0.,4.8
1979-08-02 09:21:29.920 ,2,0,0.,4.8,3.,4.8,0.,4.8,0.,4.8
1979-08-02 09:21:34.720 ,1,0,0.,4.8,3.,4.8,0.,4.8,1.,4.8
1979-08-02 09:21:39.520 ,1,0,0.,4.8,6.,4.8,0.,4.8,0.,4.8
1979-08-02 09:21:44.320 ,1,0,0.,4.8,5.,4.8,0.,4.8,1.,4.8
1979-08-02 09:21:49.120 ,1,0,0.,4.8,9.,4.8,2.,4.8,1.,4.8
1979-08-02 09:21:53.920 ,1,0,0.,4.8,3.,4.8,1.,4.8,0.,4.8
1979-08-02 09:21:58.720 ,1,0,0.,4.8,6.,4.8,1.,4.8,0.,4.8
1979-08-02 09:22:03.520 ,1,0,0.,4.8,5.,4.8,0.,4.8,1.,4.8
1979-08-02 09:22:08.320 ,1,0,0.,4.8,2.,4.8,0.,4.8,1.,4.8
1979-08-02 09:22:13.120 ,1,0,0.,4.8,6.,4.8,2.,4.8,0.,4.8
1979-08-02 09:22:17.920 ,1,0,0.,4.8,4.,4.8,2.,4.8,0.,4.8
1979-08-02 09:22:22.720 ,0,0,0.,4.8,9.,4.8,3.,4.8,0.,4.8
1979-08-02 09:22:27.520 ,0,0,0.,4.8,6.,4.8,0.,4.8,1.,4.8
1979-08-02 09:22:32.320 ,0,0,0.,4.8,6.,4.8,1.,4.8,2.,4.8
1979-08-02 09:22:37.120 ,0,0,0.,4.8,9.,4.8,3.,4.8,1.,4.8
1979-08-02 09:22:41.920 ,0,0,0.,4.8,11.,4.8,1.,4.8,0.,4.8
1979-08-02 09:22:46.720 ,0,0,0.,4.8,10.,4.8,0.,4.8,1.,4.8
1979-08-02 09:22:51.520 ,0,0,0.,4.8,10.,4.8,1.,4.8,2.,4.8
1979-08-02 09:22:56.320 ,0,0,0.,4.8,17.,4.8,0.,4.8,1.,4.8
1979-08-02 09:23:01.120 ,0,0,1.,4.8,7.,4.8,1.,4.8,1.,4.8
1979-08-02 09:23:05.920 ,0,0,0.,4.8,8.,4.8,2.,4.8,1.,4.8
1979-08-02 09:23:10.720 ,0,0,0.,4.8,14.,4.8,1.,4.8,1.,4.8
1979-08-02 09:23:15.520 ,0,0,0.,4.8,12.,4.8,0.,4.8,0.,4.8
1979-08-02 09:23:20.320 ,0,0,0.,4.8,5.,4.8,1.,4.8,1.,4.8
1979-08-02 09:23:25.120 ,0,0,0.,4.8,6.,4.8,3.,4.8,0.,4.8
1979-08-02 09:23:29.920 ,0,0,0.,4.8,17.,4.8,1.,4.8,1.,4.8
1979-08-02 09:23:34.720 ,0,0,0.,4.8,8.,4.8,0.,4.8,0.,4.8
1979-08-02 09:23:39.520 ,0,0,0.,4.8,9.,4.8,2.,4.8,0.,4.8
1979-08-02 09:23:44.320 ,0,0,0.,4.8,7.,4.8,3.,4.8,1.,4.8
1979-08-02 09:23:49.120 ,0,0,0.,4.8,9.,4.8,3.,4.8,0.,4.8
1979-08-02 09:23:53.920 ,0,0,0.,4.8,8.,4.8,0.,4.8,0.,4.8
1979-08-02 09:23:58.720 ,1,0,0.,4.8,7.,4.8,1.,4.8,0.,4.8
1979-08-02 09:24:03.520 ,1,0,0.,4.8,5.,4.8,0.,4.8,0.,4.8
1979-08-02 09:24:08.320 ,1,0,0.,4.8,2.,4.8,0.,4.8,0.,4.8
1979-08-02 09:24:13.120 ,1,0,0.,4.8,6.,4.8,0.,4.8,0.,4.8
1979-08-02 09:24:17.920 ,1,0,0.,4.8,0.,4.8,4.,4.8,0.,4.8
1979-08-02 09:24:22.720 ,1,0,0.,4.8,4.,4.8,2.,4.8,0.,4.8
1979-08-02 09:24:27.520 ,1,0,0.,4.8,6.,4.8,0.,4.8,1.,4.8
1979-08-02 09:24:32.320 ,1,0,0.,4.8,2.,4.8,0.,4.8,0.,4.8
1979-08-02 09:24:37.120 ,1,0,0.,4.8,9.,4.8,0.,4.8,0.,4.8
1979-08-02 09:24:41.920 ,1,0,0.,4.8,3.,4.8,0.,4.8,0.,4.8
1979-08-02 09:24:46.720 ,2,0,0.,4.8,5.,4.8,1.,4.8,2.,4.8
1979-08-02 09:24:51.520 ,2,0,0.,4.8,7.,4.8,2.,4.8,0.,4.8
1979-08-02 09:24:56.320 ,2,0,0.,4.8,4.,4.8,0.,4.8,0.,4.8
1979-08-02 09:25:01.120 ,2,0,0.,4.8,0.,4.8,0.,4.8,0.,4.8
1979-08-02 09:25:05.920 ,2,0,0.,4.8,4.,4.8,1.,4.8,0.,4.8
1979-08-02 09:25:10.720 ,2,0,0.,4.8,3.,4.8,0.,4.8,0.,4.8
1979-08-02 09:25:15.520 ,2,0,0.,4.8,2.,4.8,1.,4.8,0.,4.8
1979-08-02 09:25:20.320 ,2,0,0.,4.8,2.,4.8,0.,4.8,2.,4.8
1979-08-02 09:25:25.120 ,2,0,0.,4.8,1.,4.8,2.,4.8,2.,4.8
1979-08-02 09:25:29.920 ,2,0,0.,4.8,4.,4.8,2.,4.8,0.,4.8
1979-08-02 09:25:34.720 ,3,0,0.,4.8,3.,4.8,1.,4.8,0.,4.8
1979-08-02 09:25:39.520 ,3,0,0.,4.8,2.,4.8,0.,4.8,1.,4.8
1979-08-02 09:25:44.320 ,3,0,0.,4.8,4.,4.8,0.,4.8,0.,4.8
1979-08-02 09:25:49.120 ,3,0,0.,4.8,1.,4.8,1.,4.8,0.,4.8
1979-08-02 09:25:53.920 ,3,0,0.,4.8,4.,4.8,1.,4.8,0.,4.8
1979-08-02 09:25:58.720 ,3,0,0.,4.8,2.,4.8,0.,4.8,0.,4.8
1979-08-02 09:26:03.520 ,3,0,0.,4.8,7.,4.8,0.,4.8,0.,4.8
1979-08-02 09:26:08.320 ,3,0,0.,4.8,2.,4.8,1.,4.8,0.,4.8
1979-08-02 09:26:13.120 ,3,0,0.,4.8,2.,4.8,1.,4.8,0.,4.8
1979-08-02 09:26:17.920 ,3,0,0.,4.8,6.,4.8,0.,4.8,0.,4.8
1979-08-02 09:26:22.720 ,4,0,0.,4.8,2.,4.8,1.,4.8,0.,4.8
1979-08-02 09:26:27.520 ,4,0,0.,4.8,5.,4.8,2.,4.8,1.,4.8
1979-08-02 09:26:32.320 ,4,0,0.,4.8,3.,4.8,0.,4.8,0.,4.8
1979-08-02 09:26:37.120 ,4,0,0.,4.8,2.,4.8,0.,4.8,0.,4.8
1979-08-02 09:26:41.920 ,4,0,0.,4.8,3.,4.8,2.,4.8,1.,4.8
1979-08-02 09:26:46.720 ,4,0,0.,4.8,2.,4.8,1.,4.8,0.,4.8
1979-08-02 09:26:51.520 ,4,0,0.,4.8,1.,4.8,1.,4.8,0.,4.8
1979-08-02 09:26:56.320 ,4,0,0.,4.8,2.,4.8,0.,4.8,1.,4.8
1979-08-02 09:27:01.120 ,4,0,0.,4.8,2.,4.8,1.,4.8,0.,4.8
1979-08-02 09:27:05.920 ,4,0,0.,4.8,1.,4.8,0.,4.8,0.,4.8
1979-08-02 09:27:10.720 ,5,0,0.,4.8,2.,4.8,1.,4.8,0.,4.8
1979-08-02 09:27:15.520 ,5,0,0.,4.8,5.,4.8,0.,4.8,0.,4.8
1979-08-02 09:27:20.320 ,5,0,0.,4.8,1.,4.8,0.,4.8,0.,4.8
1979-08-02 09:27:25.120 ,5,0,0.,4.8,3.,4.8,0.,4.8,0.,4.8
1979-08-02 09:27:29.920 ,5,0,0.,4.8,2.,4.8,0.,4.8,0.,4.8
1979-08-02 09:27:34.720 ,5,0,0.,4.8,4.,4.8,0.,4.8,0.,4.8
1979-08-02 09:27:39.520 ,5,0,0.,4.8,1.,4.8,0.,4.8,0.,4.8
1979-08-02 09:27:44.320 ,5,0,0.,4.8,4.,4.8,0.,4.8,0.,4.8
1979-08-02 09:27:49.120 ,5,0,0.,4.8,1.,4.8,0.,4.8,0.,4.8
1979-08-02 09:27:53.920 ,5,0,0.,4.8,1.,4.8,0.,4.8,0.,4.8
1979-08-02 09:27:58.720 ,6,0,0.,4.8,0.,4.8,1.,4.8,1.,4.8
1979-08-02 09:28:03.520 ,6,0,0.,4.8,2.,4.8,0.,4.8,0.,4.8
1979-08-02 09:28:08.320 ,6,0,0.,4.8,5.,4.8,0.,4.8,0.,4.8
1979-08-02 09:28:13.120 ,6,0,0.,4.8,4.,4.8,0.,4.8,0.,4.8
1979-08-02 09:28:17.920 ,6,0,0.,4.8,0.,4.8,4.,4.8,0.,4.8
1979-08-02 09:28:22.720 ,6,0,0.,4.8,1.,4.8,0.,4.8,0.,4.8
1979-08-02 09:28:27.520 ,6,0,0.,4.8,4.,4.8,1.,4.8,0.,4.8
1979-08-02 09:28:32.320 ,6,0,0.,4.8,4.,4.8,0.,4.8,0.,4.8
1979-08-02 09:28:37.120 ,6,0,0.,4.8,3.,4.8,0.,4.8,0.,4.8
1979-08-02 09:28:41.920 ,6,0,0.,4.8,3.,4.8,0.,4.8,1.,4.8
1979-08-02 09:28:46.720 ,7,0,0.,4.8,2.,4.8,0.,4.8,0.,4.8
1979-08-02 09:28:51.520 ,7,0,0.,4.8,3.,4.8,1.,4.8,1.,4.8
1979-08-02 09:28:56.320 ,7,0,0.,4.8,0.,4.8,0.,4.8,0.,4.8
1979-08-02 09:29:01.120 ,7,0,0.,4.8,0.,4.8,0.,4.8,0.,4.8
1979-08-02 09:29:05.920 ,7,0,0.,4.8,0.,4.8,0.,4.8,0.,4.8
1979-08-02 09:29:10.720 ,7,0,0.,4.8,1.,4.8,1.,4.8,0.,4.8
1979-08-02 09:29:15.520 ,7,0,0.,4.8,0.,4.8,0.,4.8,0.,4.8
1979-08-02 09:29:20.320 ,7,0,0.,4.8,0.,4.8,0.,4.8,0.,4.8
1979-08-02 09:29:25.120 ,7,0,0.,4.8,0.,4.8,0.,4.8,0.,4.8
1979-08-02 09:29:29.920 ,7,0,0.,4.8,0.,4.8,0.,4.8,0.,4.8
1979-08-02 09:29:34.720 ,7,0,0.,4.8,1.,4.8,0.,4.8,0.,4.8
1979-08-02 09:29:39.520 ,7,0,0.,4.8,0.,4.8,0.,4.8,0.,4.8
1979-08-02 09:29:44.320 ,7,0,0.,4.8,0.,4.8,0.,4.8,0.,4.8
1979-08-02 09:29:49.120 ,7,0,0.,4.8,0.,4.8,1.,4.8,0.,4.8
1979-08-02 09:29:53.920 ,7,0,0.,4.8,0.,4.8,0.,4.8,1.,4.8
1979-08-02 09:29:58.720 ,7,0,0.,4.8,1.,4.8,0.,4.8,0.,4.8
1979-08-02 09:30:03.520 ,7,0,0.,4.8,0.,4.8,0.,4.8,0.,4.8
1979-08-02 09:30:08.320 ,7,0,0.,4.8,0.,4.8,1.,4.8,0.,4.8
1979-08-02 09:30:13.120 ,7,0,0.,4.8,1.,4.8,0.,4.8,0.,4.8
1979-08-02 09:30:17.920 ,7,0,0.,4.8,0.,4.8,0.,4.8,0.,4.8
1979-08-02 09:30:22.720 ,6,0,0.,4.8,1.,4.8,0.,4.8,0.,4.8
1979-08-02 09:30:27.520 ,6,0,0.,4.8,2.,4.8,0.,4.8,0.,4.8
1979-08-02 09:30:32.320 ,6,0,0.,4.8,6.,4.8,0.,4.8,1.,4.8
1979-08-02 09:30:37.120 ,6,0,0.,4.8,2.,4.8,2.,4.8,0.,4.8
1979-08-02 09:30:41.920 ,6,0,0.,4.8,2.,4.8,3.,4.8,0.,4.8
1979-08-02 09:30:46.720 ,6,0,0.,4.8,3.,4.8,1.,4.8,0.,4.8
1979-08-02 09:30:51.520 ,6,0,0.,4.8,2.,4.8,0.,4.8,0.,4.8
1979-08-02 09:30:56.320 ,6,0,0.,4.8,2.,4.8,0.,4.8,0.,4.8
1979-08-02 09:31:01.120 ,6,0,0.,4.8,1.,4.8,1.,4.8,0.,4.8
1979-08-02 09:31:05.920 ,6,0,0.,4.8,1.,4.8,2.,4.8,1.,4.8
1979-08-02 09:31:10.720 ,0,0,0.,4.8,2.,4.8,2.,4.8,1.,4.8
1979-08-02 09:31:15.520 ,0,0,0.,4.8,4.,4.8,1.,4.8,2.,4.8
1979-08-02 09:31:20.320 ,0,0,0.,4.8,2.,4.8,0.,4.8,1.,4.8
1979-08-02 09:31:25.120 ,0,0,0.,4.8,2.,4.8,0.,4.8,1.,4.8
1979-08-02 09:31:29.920 ,0,0,,0,,0,,0,,0
1979-08-02 09:31:34.720 ,0,0,0.,4.8,1.,4.8,1.,4.8,1.,4.8
1979-08-02 09:31:39.520 ,0,0,0.,4.8,4.,4.8,0.,4.8,1.,4.8
1979-08-02 09:31:44.320 ,0,0,0.,4.8,2.,4.8,1.,4.8,0.,4.8
1979-08-02 09:31:49.120 ,0,0,0.,4.8,2.,4.8,2.,4.8,0.,4.8
1979-08-02 09:31:53.920 ,0,0,0.,4.8,2.,4.8,0.,4.8,0.,4.8
1979-08-02 09:31:58.720 ,4,0,0.,4.8,1.,4.8,0.,4.8,0.,4.8
1979-08-02 09:32:03.520 ,4,0,0.,4.8,3.,4.8,0.,4.8,0.,4.8
1979-08-02 09:32:08.320 ,4,0,0.,4.8,1.,4.8,2.,4.8,1.,4.8
1979-08-02 09:32:13.120 ,4,0,0.,4.8,3.,4.8,1.,4.8,0.,4.8
1979-08-02 09:32:17.920 ,4,0,1.,4.8,7.,4.8,2.,4.8,1.,4.8
1979-08-02 09:32:22.720 ,4,0,0.,4.8,3.,4.8,0.,4.8,0.,4.8
1979-08-02 09:32:27.520 ,4,0,0.,4.8,0.,4.8,1.,4.8,0.,4.8
1979-08-02 09:32:32.320 ,4,0,0.,4.8,3.,4.8,1.,4.8,0.,4.8
1979-08-02 09:32:37.120 ,4,0,0.,4.8,1.,4.8,1.,4.8,1.,4.8
1979-08-02 09:32:41.920 ,4,0,0.,4.8,3.,4.8,1.,4.8,0.,4.8
1979-08-02 09:32:46.720 ,3,0,0.,4.8,2.,4.8,0.,4.8,0.,4.8
1979-08-02 09:32:51.520 ,3,0,0.,4.8,5.,4.8,0.,4.8,0.,4.8
1979-08-02 09:32:56.320 ,3,0,0.,4.8,5.,4.8,2.,4.8,0.,4.8
1979-08-02 09:33:01.120 ,3,0,0.,4.8,2.,4.8,1.,4.8,1.,4.8
1979-08-02 09:33:05.920 ,3,0,0.,4.8,5.,4.8,1.,4.8,0.,4.8
1979-08-02 09:33:10.720 ,3,0,0.,4.8,2.,4.8,0.,4.8,1.,4.8
1979-08-02 09:33:15.520 ,3,0,0.,4.8,2.,4.8,0.,4.8,0.,4.8
1979-08-02 09:33:20.320 ,3,0,0.,4.8,4.,4.8,0.,4.8,1.,4.8